{"data":{"norad_id":58630,"epoch":"2026-09-20T16:45:52.878816Z","epoch_age_seconds":132570,"freshness":"FRESH","line1":"1 58630U 23203N   26263.69852869 -.00000643  00000+0 -13854-4 0  9993","line2":"2 58630  43.0011  49.3790 0001175 269.5033  90.5684 15.27578354153342","mean_motion":15.27578354,"eccentricity":0.0001175,"inclination_deg":43.0011,"raan_deg":49.379,"arg_perigee_deg":269.5033,"mean_anomaly_deg":90.5684,"bstar":-1.3854e-5,"rev_number":15334,"period_min":94.266850288191,"perigee_km":482.24783481481,"apogee_km":483.86021470563,"semimajor_km":6861.1910247602,"source":"CELESTRAK","updated_at":"2026-09-21T09:00:33.924044Z"}}